Погода в Кураповке

Россия / Самарская область     53°04′36″N   51°22′31″E
темп.,
°C
ветер,
м/с
пор.,
м/с
влажн.,
%
обл.,
%
осадки,
мм/ч
давл.,
гПа
погр.,
м
10 апреля, сб
сб1001:00+5св3495100 0.0 102368
04:00+5всв3491100 0.0 102366
07:00+4всв3692100 0.0 1024124
10:00+10в5875100 0.0 1024343
13:00+15юв71061100 0.0 1023635
16:00+18юв61360100 0.0 1023888
19:00+16юв51164100 0.0 1022222
22:00+15юв71764100 0.0 1023423
11 апреля, вс
вс1101:00+13юв81972100 0.0 1024531
04:00+12юв71675100 0.0 1026526
07:00+11юв71577100 0.0 1027461
10:00+14ююв7125893 0.0 1028563
13:00+18ююв794588 0.0 1029897
16:00+20ююв684298 0.0 10291026
19:00+16юв3457100 0.0 103056
22:00+12юв4866100 0.0 1031115
12 апреля, пн
пн1201:00+10юв4773100 0.0 1032110
04:00+9вюв3681100 0.0 103290
07:00+9вюв3683100 0.0 1033119
10:00+14юв4563100 0.0 1033411
13:00+18юв3450100 0.0 1033884
16:00+19вюв3445100 0.0 10321037
19:00+15в345999 0.0 103253
22:00+11вюв346697 0.0 103356
13 апреля, вт
вт1301:00+9вюв336355 0.0 103421
04:00+7вюв336099 0.0 103420
07:00+7вюв35635 0.0 103497
10:00+13вюв464467 0.0 1034493
13:00+17юв453034 0.0 1033951
16:00+18юв45275 0.0 10311130
19:00+14юв33425 0.0 103125
22:00+11юв33535 0.0 103123
14 апреля, ср
ср1401:00+9юв23575 0.0 103116
04:00+7вюв22595 0.0 103113
07:00+7вюв23615 0.0 103141
10:00+14юв334324 0.0 1030407
13:00+18юв33315 0.0 1028894
16:00+19вюв23275 0.0 10271078
19:00+15в33425 0.0 102621
22:00+12в22455 0.0 102611